Tracking 25656 objects as of 22-May-2022
HD Live streaming from Space Station
objects crossing your sky now

PAGEOS 1 DEB

Track PAGEOS 1 DEB now!
10-day predictions


NORAD ID: 2511
Int'l Code: 1966-056D
Perigee: 4,232.4 km
Apogee: 4,263.7 km
Inclination: 87.0 °
Period: 181.5 minutes
Semi major axis: 10619 km
RCS: 1.1173 m2 (large)
Launch date: June 24, 1966
Source: United States (US)
Launch site: AIR FORCE WESTERN TEST RANGE (AFWTR)

Note: This is SATELLITE DEBRIS
aabbcc
Your satellite tracking list
Your tracking list is empty




NASA's NSSDC Master Catalog

Two Line Element Set (TLE):
1 02511U 66056D   22141.53170154 -.00000017  00000-0 -18376-1 0  9994
2 02511  87.0299 355.2248 0014714 336.7661  23.2479  7.93365963234595
Source of the keplerian elements: AFSPC